This is the latest recevied weather packets stored in our database for station/object DL7HMX-13. If no packets are shown the sender has not sent any weather packets the latest 10 day(s).
| Time | Temp. | Humidity | Pressure | Rain* | Wind** | Luminosity | Snow |
|---|---|---|---|---|---|---|---|
| 1777699820 | 9.44° C | 79% | 1024.8 hPa | 0 mm | - | 99 W/m² | - |
| 1777699225 | 7.78° C | 82% | 1024.6 hPa | 0 mm | - | 77 W/m² | - |
| 1777698626 | 7.78° C | 84% | 1024.6 hPa | 0 mm | - | 60 W/m² | - |
| 1777698029 | 6.67° C | 89% | 1024.6 hPa | 0 mm | - | 43 W/m² | - |
| 1777697432 | 5° C | 92% | 1024.7 hPa | 0 mm | - | 33 W/m² | - |
| 1777696818 | 4.44° C | 94% | 1024.7 hPa | 0 mm | - | 27 W/m² | - |
| 1777696221 | 3.89° C | 96% | 1024.8 hPa | 0 mm | - | 21 W/m² | - |
| 1777695625 | 3.89° C | 97% | 1024.9 hPa | 0 mm | - | 15 W/m² | - |
| 1777695027 | 3.33° C | 97% | 1024.9 hPa | 0 mm | - | 11 W/m² | - |
| 1777694430 | 3.33° C | 97% | 1024.9 hPa | 0 mm | - | 7 W/m² | - |
| 1777693817 | 3.33° C | 97% | 1024.9 hPa | 0 mm | - | 3 W/m² | - |
| 1777693220 | 3.89° C | 98% | 1024.9 hPa | 0 mm | - | 1 W/m² | - |
| 1777692624 | 3.89° C | 97% | 1024.8 hPa | 0 mm | - | 0 W/m² | - |
| 1777692027 | 3.89° C | 96% | 1024.8 hPa | 0 mm | - | 0 W/m² | - |
| 1777691429 | 4.44° C | 96% | 1024.9 hPa | 0 mm | - | 0 W/m² | - |
| 1777690816 | 4.44° C | 95% | 1024.8 hPa | 0 mm | - | 0 W/m² | - |
| 1777690219 | 5° C | 95% | 1024.8 hPa | 0 mm | - | 0 W/m² | - |
| 1777689622 | 5° C | 95% | 1025 hPa | 0 mm | - | 0 W/m² | - |
| 1777689025 | 5° C | 94% | 1024.9 hPa | 0 mm | - | 0 W/m² | - |
| 1777688428 | 5° C | 95% | 1025.1 hPa | 0 mm | - | 0 W/m² | - |
| 1777687831 | 5° C | 95% | 1025.2 hPa | 0 mm | - | 0 W/m² | - |
| 1777687218 | 5° C | 94% | 1025.2 hPa | 0 mm | - | 0 W/m² | - |
| 1777686621 | 5° C | 94% | 1025.2 hPa | 0 mm | - | 0 W/m² | - |
| 1777686025 | 5.56° C | 94% | 1025.2 hPa | 0 mm | - | 0 W/m² | - |
| 1777685427 | 5° C | 94% | 1025.5 hPa | 0 mm | - | 0 W/m² | - |
* Rain latest hour (hover to see other rain measurements)
** Current wind speed in m/s (hover to see current wind gust speed)